This is the latest recevied weather packets stored in our database for station/object IU7URP-17. If no packets are shown the sender has not sent any weather packets the latest 10 day(s).
| Time | Temp. | Humidity | Pressure | Rain* | Wind** | Luminosity | Snow |
|---|---|---|---|---|---|---|---|
| 1788264419 | 33.89° C | 57% | 1016.8 hPa | - | - | - | - |
| 1788263215 | 33.89° C | 56% | 1016.7 hPa | - | - | - | - |
| 1788262011 | 35.56° C | 52% | 1016.5 hPa | - | - | - | - |
| 1788261692 | 35° C | 53% | 1016.7 hPa | - | - | - | - |
| 1788260488 | 33.89° C | 56% | 1016.7 hPa | - | - | - | - |
| 1788259283 | 35° C | 52% | 1016.7 hPa | - | - | - | - |
| 1788258079 | 35.56° C | 50% | 1016.7 hPa | - | - | - | - |
| 1788256875 | 36.11° C | 49% | 1016.9 hPa | - | - | - | - |
| 1788255671 | 33.33° C | 54% | 1017.2 hPa | - | - | - | - |
| 1788254467 | 33.89° C | 51% | 1017.2 hPa | - | - | - | - |
| 1788253263 | 36.11° C | 47% | 1017 hPa | - | - | - | - |
| 1788252059 | 34.44° C | 51% | 1017.2 hPa | - | - | - | - |
| 1788250855 | 31.67° C | 58% | 1017.2 hPa | - | - | - | - |
| 1788249651 | 32.22° C | 59% | 1017.2 hPa | - | - | - | - |
| 1788248447 | 32.22° C | 60% | 1017.3 hPa | - | - | - | - |
| 1788247243 | 32.22° C | 60% | 1017.1 hPa | - | - | - | - |
| 1788246039 | 31.11° C | 66% | 1017.1 hPa | - | - | - | - |
| 1788244835 | 30° C | 71% | 1017.4 hPa | - | - | - | - |
| 1788243630 | 28.89° C | 76% | 1017.5 hPa | - | - | - | - |
| 1788242427 | 27.78° C | 79% | 1017.6 hPa | - | - | - | - |
| 1788241222 | 26.67° C | 85% | 1017.7 hPa | - | - | - | - |
| 1788240018 | 25.56° C | 88% | 1017.8 hPa | - | - | - | - |
| 1788238814 | 24.44° C | 90% | 1017.9 hPa | - | - | - | - |
| 1788237610 | 23.89° C | 92% | 1017.7 hPa | - | - | - | - |
| 1788236406 | 23.89° C | 92% | 1017.6 hPa | - | - | - | - |
* Rain since midnight (hover to see other rain measurements)
** Current wind speed in m/s (hover to see current wind gust speed)